Date String (YYYY-MM-DD hh:mm:ss) UTC,Instrument flags,Ambient pressure (hPa),Sample flow (lpm),Bypass flow (lpm),Sample temperature (°C),Ambient temperature (°C),ASC tube jacket temperature (°C),LED temperature (°C),Box temperature (°C),Sample RH (%),Span deviation,Mass concentration (μg/m³),Mass concentration (μg/m³),Mass concentration (μg/m³)
DateTimeUTC,F1_M11,P_M11,Q1_M11,Q2_M11,T1_M11,T2_M11,T3_M11,T4_M11,T5_M11,U1_M11,ZSPAN_M11,X2_M11,X0_M11,X1_M11
2023-05-02 00:00:00,,0826.4,5.02,0.00,30.4,26.4,00.0,38.6,31.7,12.5,0005.2,0012.41,0028.96,0009.44
2023-05-02 00:01:00,,0826.4,4.99,0.00,30.3,26.6,00.0,38.6,31.5,12.6,0005.3,0012.24,0028.44,0009.27
2023-05-02 00:02:00,,0826.4,5.00,0.00,30.3,26.9,00.0,38.6,31.6,12.6,0005.3,0012.20,0028.17,0009.15
2023-05-02 00:03:00,,0826.4,5.00,0.00,30.2,27.3,00.0,38.6,31.6,12.8,0005.4,0012.15,0027.14,0009.05
2023-05-02 00:04:00,,0826.4,4.99,0.00,30.2,27.6,00.0,38.6,31.7,13.0,0005.8,0012.09,0026.99,0008.95
2023-05-02 00:05:00,,0826.4,5.00,0.00,30.3,27.9,00.0,38.6,31.7,13.3,0000.0,0011.97,0028.19,0008.84
2023-05-02 00:06:00,,0826.4,5.01,0.00,30.3,28.2,00.0,38.6,31.8,13.2,0000.0,0011.73,0028.05,0008.73
2023-05-02 00:07:00,,0826.4,5.01,0.00,30.3,28.4,00.0,38.6,31.9,13.4,0000.0,0011.61,0028.83,0008.63
2023-05-02 00:08:00,,0826.4,4.99,0.00,30.3,28.6,00.0,38.6,31.9,13.4,0000.0,0011.50,0027.76,0008.50
2023-05-02 00:09:00,,0826.4,5.00,0.00,30.3,28.7,00.0,38.7,31.9,13.4,0000.0,0011.43,0026.49,0008.39
2023-05-02 00:10:00,,0826.4,5.00,0.00,30.3,28.8,00.0,38.7,31.9,13.5,0000.0,0011.41,0026.20,0008.34
2023-05-02 00:11:00,,0826.4,4.99,0.00,30.4,29.0,00.0,38.7,32.0,13.4,0000.0,0011.34,0025.71,0008.27
2023-05-02 00:12:00,,0826.4,5.00,0.00,30.4,29.1,00.0,38.7,32.0,13.3,0000.0,0011.31,0026.57,0008.24
2023-05-02 00:13:00,,0826.4,5.00,0.00,30.4,29.1,00.0,38.7,32.0,13.1,0002.3,0011.24,0026.59,0008.20
2023-05-02 00:14:00,,0826.4,5.00,0.00,30.4,29.2,00.0,38.7,32.1,13.3,0004.9,0011.15,0026.16,0008.14
2023-05-02 00:15:00,,0826.4,5.01,0.00,30.5,29.3,00.0,38.7,32.1,13.3,0004.3,0011.07,0025.87,0008.09
2023-05-02 00:16:00,,0826.4,5.00,0.00,30.5,29.3,00.0,38.8,32.1,13.4,0004.0,0011.01,0024.61,0008.03
2023-05-02 00:17:00,,0826.4,5.00,0.00,30.5,29.4,00.0,38.8,32.2,13.5,0003.4,0011.06,0024.07,0007.97
2023-05-02 00:18:00,,0826.5,4.99,0.00,30.6,29.4,00.0,38.8,32.2,13.2,0002.8,0011.15,0023.98,0007.93
2023-05-02 00:19:00,,0826.5,4.99,0.00,30.6,29.4,00.0,38.8,32.2,13.1,0002.8,0011.11,0024.70,0007.91
2023-05-02 00:20:00,,0826.4,5.00,0.00,30.6,28.3,00.0,38.8,32.1,13.1,0003.0,0011.03,0024.58,0007.90
2023-05-02 00:21:00,,0826.4,5.00,0.00,30.5,26.7,00.0,38.7,31.8,13.1,0003.3,0010.97,0024.56,0007.88
2023-05-02 00:22:00,,0826.4,5.00,0.00,30.5,26.4,00.0,38.6,31.7,12.9,0003.8,0010.90,0024.36,0007.85
2023-05-02 00:23:00,,0826.4,5.00,0.00,30.3,26.6,00.0,38.6,31.6,13.2,0003.9,0010.85,0023.92,0007.83
2023-05-02 00:24:00,,0826.4,5.01,0.00,30.3,26.9,00.0,38.6,31.6,13.5,0004.0,0010.76,0024.00,0007.78
2023-05-02 00:25:00,,0826.4,4.99,0.00,30.3,27.3,00.0,38.7,31.6,13.2,0003.8,0010.77,0024.51,0007.77
2023-05-02 00:26:00,,0826.3,5.00,0.00,30.3,27.6,00.0,38.6,31.7,13.1,0004.0,0010.77,0024.30,0007.78
2023-05-02 00:27:00,,0826.4,4.99,0.00,30.3,27.9,00.0,38.6,31.8,13.0,0004.0,0010.82,0024.29,0007.80
2023-05-02 00:28:00,,0826.4,5.01,0.00,30.3,28.2,00.0,38.6,31.8,13.4,0004.4,0010.83,0024.53,0007.83
2023-05-02 00:29:00,,0826.4,5.01,0.00,30.3,28.4,00.0,38.6,31.9,13.1,0004.4,0010.78,0024.46,0007.84
2023-05-02 00:30:00,,0826.4,4.99,0.00,30.3,28.6,00.0,38.7,31.9,13.1,0004.2,0010.78,0024.34,0007.84
2023-05-02 00:31:00,,0826.4,4.99,0.00,30.3,28.7,00.0,38.7,31.9,13.1,0004.2,0010.83,0025.65,0007.86
2023-05-02 00:32:00,,0826.3,5.01,0.00,30.4,28.9,00.0,38.7,32.0,13.1,0004.1,0010.83,0025.79,0007.87
2023-05-02 00:33:00,,0826.4,5.01,0.00,30.4,29.0,00.0,38.7,32.0,13.0,0003.9,0010.95,0026.71,0007.88
2023-05-02 00:34:00,,0826.4,4.99,0.00,30.4,29.1,00.0,38.7,32.1,13.1,0004.0,0010.96,0027.31,0007.90
2023-05-02 00:35:00,,0826.4,4.99,0.00,30.4,29.2,00.0,38.7,32.1,13.0,0003.8,0010.99,0027.14,0007.91
2023-05-02 00:36:00,,0826.4,4.99,0.00,30.5,29.2,00.0,38.7,32.1,13.2,0003.9,0010.99,0027.44,0007.92
2023-05-02 00:37:00,,0826.4,4.99,0.00,30.5,29.3,00.0,38.8,32.2,13.3,0003.6,0011.00,0029.62,0007.90
2023-05-02 00:38:00,,0826.4,4.99,0.00,30.5,29.3,00.0,38.8,32.2,13.3,0003.8,0010.95,0030.28,0007.88
2023-05-02 00:39:00,,0826.4,5.01,0.00,30.6,29.3,00.0,38.8,32.2,13.4,0002.5,0010.85,0030.01,0007.86
2023-05-02 00:40:00,,0826.4,4.98,0.00,30.6,27.8,00.0,38.7,32.0,13.6,0000.0,0010.81,0029.82,0007.84
2023-05-02 00:41:00,,0826.4,5.03,0.00,30.5,26.5,00.0,38.6,31.8,13.1,0000.0,0010.80,0029.12,0007.83
2023-05-02 00:42:00,,0826.4,5.00,0.00,30.4,26.5,00.0,38.6,31.7,13.0,0000.0,0010.75,0028.12,0007.83
2023-05-02 00:43:00,,0826.4,5.00,0.00,30.3,26.7,00.0,38.6,31.6,13.4,0000.0,0010.74,0028.09,0007.81
2023-05-02 00:44:00,,0826.4,5.00,0.00,30.3,27.1,00.0,38.7,31.7,13.2,0001.4,0010.69,0028.68,0007.79
2023-05-02 00:45:00,,0826.4,5.00,0.00,30.3,27.4,00.0,38.7,31.7,13.4,0001.4,0010.67,0028.89,0007.77
2023-05-02 00:46:00,,0826.5,4.99,0.00,30.2,27.7,00.0,38.6,31.7,13.3,0003.3,0010.66,0028.66,0007.75
2023-05-02 00:47:00,,0826.5,5.00,0.00,30.3,28.0,00.0,38.6,31.8,13.4,0003.2,0010.63,0028.36,0007.73
2023-05-02 00:48:00,,0826.5,5.00,0.00,30.3,28.2,00.0,38.6,31.8,13.3,0003.2,0010.63,0027.03,0007.72
2023-05-02 00:49:00,,0826.5,5.00,0.00,30.3,28.4,00.0,38.7,31.8,13.3,0002.5,0010.52,0026.30,0007.69
2023-05-02 00:50:00,,0826.5,5.01,0.00,30.3,28.6,00.0,38.7,31.9,13.7,0002.1,0010.55,0026.33,0007.66
2023-05-02 00:51:00,,0826.5,5.00,0.00,30.3,28.7,00.0,38.7,31.9,13.3,0002.3,0010.55,0026.80,0007.62
2023-05-02 00:52:00,,0826.5,4.98,0.00,30.4,28.9,00.0,38.7,32.0,13.2,0002.4,0010.55,0027.44,0007.56
2023-05-02 00:53:00,,0826.6,5.01,0.00,30.4,29.0,00.0,38.7,32.0,13.6,0003.0,0010.48,0026.90,0007.50
2023-05-02 00:54:00,,0826.6,5.00,0.00,30.4,29.1,00.0,38.7,32.0,13.5,0003.5,0010.44,0027.09,0007.46
2023-05-02 00:55:00,,0826.5,5.01,0.00,30.4,29.1,00.0,38.7,32.1,13.3,0003.9,0010.35,0026.45,0007.41
2023-05-02 00:56:00,,0826.6,5.00,0.00,30.5,29.2,00.0,38.7,32.1,13.3,0003.6,0010.29,0026.73,0007.33
2023-05-02 00:57:00,,0826.6,4.98,0.00,30.5,29.3,00.0,38.8,32.1,13.3,0003.6,0010.17,0027.09,0007.24
2023-05-02 00:58:00,,0826.6,5.00,0.00,30.5,29.3,00.0,38.8,32.2,13.5,0003.6,0010.02,0027.03,0007.17
2023-05-02 00:59:00,,0826.6,5.00,0.00,30.5,29.4,00.0,38.8,32.2,13.4,0005.2,0009.92,0027.10,0007.10
